Wind_Speed
15 15 15 15 16 16 16 16 17 17 17 17 18 17 17 17 16 16 16 16 16 16 16 16 17 17 18 17 16 16 16 16 16 15 15 15 16 16 16 16 16 16 15
15 15 15 16 16 16 16 17 17 17 17 18 18 18 18 18 17 16 17 17 17 17 17 16 16 17 17 17 17 17 17 17 16 16 15 15 15 15 16 16 16 16 15
15 15 15 16 16 16 16 17 18 18 18 18 18 18 18 18 18 17 17 17 17 17 18 18 17 17 18 18 18 17 17 17 16 16 16 16 15 15 15 15 16 16 15
15 15 16 16 17 17 17 18 18 19 19 19 19 18 18 18 18 17 17 17 17 17 17 18 18 18 18 18 18 17 17 17 16 16 15 15 15 15 15 15 15 15 15
15 16 16 17 17 18 18 18 18 19 19 19 18 18 18 18 18 17 17 17 17 17 18 18 18 18 18 18 19 18 18 18 17 18 17 17 16 16 16 16 16 16 16
15 16 17 17 18 18 18 18 18 19 19 19 18 18 18 18 18 18 18 18 18 18 18 18 19 19 19 18 19 19 19 19 19 19 19 18 17 16 16 16 16 16 16
16 16 16 17 17 17 18 18 18 19 19 19 19 19 18 18 18 19 19 19 18 18 19 19 19 20 19 19 19 19 19 19 19 19 19 18 18 17 16 16 17 17 18
15 15 16 16 17 17 18 18 18 18 18 19 19 19 19 18 18 19 18 19 19 18 19 19 19 19 19 19 19 19 19 19 19 19 19 18 19 18 17 17 17 18 18
15 16 16 16 16 17 17 17 18 18 18 18 18 19 18 18 18 18 18 19 19 19 19 20 20 19 19 19 20 20 19 19 19 19 19 19 18 18 18 18 18 18 18
15 15 16 16 16 16 17 17 17 17 17 17 18 18 18 19 19 19 19 19 19 19 20 20 20 20 20 20 20 21 20 20 19 19 20 19 18 18 18 19 19 19 19
15 15 16 17 17 16 17 17 16 16 16 16 17 18 19 19 19 20 20 20 20 20 20 20 20 21 21 21 20 20 20 20 20 20 20 19 19 19 19 20 20 20 19
15 16 16 17 17 17 17 17 16 16 17 17 18 18 18 19 20 20 20 20 20 20 20 20 20 21 21 21 21 21 21 21 21 21 20 20 20 20 21 21 21 21 21
16 17 17 18 18 18 18 18 17 17 17 18 19 19 20 20 20 20 20 20 20 20 20 21 21 21 21 21 21 22 22 21 21 21 21 22 22 21 22 22 22 22 22
18 18 18 18 18 18 18 18 18 18 18 18 19 19 20 20 20 21 20 20 21 21 21 21 22 22 22 22 22 22 22 22 23 23 23 23 24 23 23 23 23 23 23
18 19 19 19 19 19 19 19 19 19 18 19 19 19 19 19 20 20 20 20 21 22 22 22 22 23 23 23 23 23 24 24 24 24 24 24 24 24 24 24 24 24 23
19 20 20 20 20 20 20 20 19 19 19 19 19 20 20 20 20 21 21 21 22 22 23 23 23 23 24 23 24 24 25 25 26 25 25 25 25 25 25 24 24 24 24
20 21 21 21 21 21 21 21 20 20 20 20 20 20 20 20 21 21 21 21 22 22 23 23 23 23 23 23 24 24 25 25 26 26 26 26 26 26 25 26 25 25 25
21 21 22 22 22 21 21 21 21 21 21 22 22 22 22 22 22 22 22 22 22 22 22 22 23 24 24 24 24 24 25 25 26 27 27 28 28 28 27 27 26 27 27
22 22 22 23 22 22 22 22 22 22 22 23 23 23 23 23 23 22 22 22 22 22 23 23 24 25 25 25 25 25 25 26 26 27 27 28 29 29 28 27 27 28 27
23 23 23 23 23 22 23 23 23 23 23 23 24 24 24 23 23 23 24 24 24 24 25 25 26 27 27 27 27 28 28 28 28 28 28 29 29 29 29 29 29 29 28
23 23 23 23 23 23 23 23 23 24 24 24 24 24 24 24 24 25 25 26 26 27 27 27 28 28 29 29 29 30 30 30 30 29 29 30 29 29 29 29 29 29 29
24 24 24 24 24 24 24 25 24 24 25 25 24 24 24 25 26 27 27 27 28 28 28 29 29 30 29 30 31 32 31 31 31 30 29 29 29 29 29 29 30 30 30
26 26 25 25 25 26 26 26 26 27 27 26 26 25 25 26 27 27 28 28 29 30 30 30 31 31 31 31 32 31 30 30 29 29 29 28 28 29 29 29 29 29 29
27 27 27 26 27 27 28 28 28 28 28 27 26 26 26 27 28 28 29 29 30 31 32 32 32 32 32 32 32 32 31 31 30 29 29 28 28 28 28 29 29 30 29
28 28 28 28 28 28 28 29 30 29 28 27 27 27 27 27 28 29 30 30 31 31 31 32 32 32 33 33 33 33 32 32 31 30 29 29 29 28 29 29 29 29 30
29 29 29 29 29 29 30 30 30 29 28 28 28 28 28 28 29 30 30 30 30 30 31 31 32 33 33 33 33 34 33 33 33 31 30 30 29 30 29 29 28 28 29
Wind_Direction
284 281 281 279 278 277 276 275 275 274 273 274 274 274 272 272 272 269 269 269 270 271 270 270 269 267 267 267 269 265 265 268 266 268 268 267 266 268 269 269 269 270 266
285 282 282 284 284 281 280 279 278 276 276 276 276 274 272 271 271 270 269 268 269 269 270 271 270 267 269 268 265 265 266 267 267 268 268 267 268 269 269 270 268 268 268
287 286 283 284 284 282 281 281 280 278 276 275 275 274 272 271 271 270 270 268 268 269 269 268 267 267 266 266 265 265 264 265 267 268 268 268 268 270 271 269 268 266 264
287 288 286 286 284 282 282 282 280 278 277 275 274 274 273 271 270 269 270 269 268 268 268 267 265 266 265 264 264 264 265 267 267 265 267 270 271 271 271 268 268 266 264
288 288 288 288 287 285 284 284 282 279 277 276 275 274 272 270 269 269 271 271 268 266 266 267 265 265 264 262 262 262 263 263 263 264 266 270 269 271 271 268 267 267 266
290 290 290 289 288 286 285 285 283 280 278 276 275 274 272 271 270 269 270 271 271 269 267 265 265 263 261 261 262 262 263 263 263 264 266 267 267 269 271 267 267 265 266
292 291 290 290 290 288 286 285 284 281 278 277 276 275 272 271 271 269 269 269 269 270 269 267 267 265 263 263 264 264 264 264 265 264 264 265 266 268 269 268 267 266 266
293 293 293 292 292 291 288 287 285 283 280 278 276 274 271 270 270 269 269 268 268 268 268 267 266 265 264 264 265 264 264 264 265 264 265 266 269 269 270 269 269 268 268
294 295 295 295 294 293 292 292 288 283 281 279 275 272 270 269 269 270 270 268 269 268 267 267 264 264 265 265 265 264 264 264 266 266 265 267 269 271 271 271 270 269 269
295 296 298 299 300 298 297 294 291 286 283 281 277 273 271 270 270 271 271 269 270 270 269 267 265 265 265 266 265 264 263 263 266 266 266 268 270 272 272 272 271 270 269
295 297 299 300 300 299 300 296 292 289 286 284 280 275 273 272 271 271 271 270 268 268 269 268 266 265 265 266 265 264 264 262 264 265 266 268 271 271 271 271 271 270 269
298 297 297 299 299 298 298 296 293 291 288 284 282 280 278 277 277 273 271 269 267 267 266 266 267 266 266 266 265 263 263 263 264 266 267 268 269 270 269 269 269 269 269
298 298 297 299 300 299 297 295 293 292 290 286 284 282 280 279 279 278 275 272 269 267 266 266 268 268 269 268 267 265 264 264 265 266 267 268 268 268 268 268 268 267 268
296 297 297 298 298 298 297 294 293 293 292 289 287 284 282 279 280 279 277 275 272 270 269 269 269 270 270 269 268 267 265 265 266 266 266 266 267 267 266 267 267 268 268
294 296 296 297 298 297 296 295 293 291 291 290 289 287 286 283 281 279 277 274 272 271 271 272 271 270 270 270 269 268 267 266 266 265 266 266 268 267 266 265 265 267 267
292 294 295 296 296 295 293 293 292 292 291 291 291 289 287 284 281 280 278 276 274 273 271 271 271 269 269 270 268 267 267 266 264 264 265 266 268 267 266 266 266 266 265
291 293 295 295 295 295 294 293 292 291 289 289 290 290 288 285 282 281 279 277 276 274 271 271 271 272 271 271 271 270 269 268 268 267 267 266 268 268 266 268 267 266 266
291 292 293 293 294 294 293 292 292 291 290 289 289 288 287 285 282 281 279 277 277 275 273 271 271 272 273 273 273 272 271 270 270 269 269 269 269 269 268 268 267 267 267
289 290 292 291 292 293 293 292 291 292 290 289 289 288 286 284 281 279 279 276 276 276 275 273 272 272 274 275 275 273 272 272 272 272 271 269 269 269 268 267 266 267 267
287 288 290 291 292 292 292 290 290 290 291 291 290 288 286 284 281 280 279 278 277 277 276 275 274 274 274 275 274 274 273 273 273 273 273 271 270 269 267 265 265 266 266
288 290 290 291 292 292 292 291 291 291 291 291 290 288 286 284 282 281 281 280 278 277 277 276 276 276 275 275 275 274 274 273 274 274 273 272 270 269 267 266 265 265 265
288 289 289 290 291 291 292 292 293 293 292 291 289 287 286 285 285 284 283 282 280 279 278 277 276 276 276 276 276 275 275 274 274 273 272 269 269 268 267 266 265 265 265
286 287 288 289 289 289 290 291 291 292 291 290 287 286 286 286 285 285 284 283 282 280 280 279 279 278 277 277 277 276 275 274 274 272 270 267 267 268 266 265 264 264 264
285 286 287 288 289 290 289 290 291 291 290 288 287 286 286 286 285 285 284 284 283 282 281 280 279 279 278 277 277 276 274 274 274 273 270 267 266 265 264 264 264 264 264
285 286 285 286 287 289 289 289 290 290 289 287 287 287 287 287 286 286 285 284 283 283 282 281 282 281 280 279 276 274 273 273 272 272 269 267 266 264 263 263 263 264 265
283 285 285 285 287 288 288 289 289 288 287 287 286 287 288 288 287 288 287 285 284 284 284 283 283 282 280 279 278 275 274 273 271 270 268 266 265 264 262 261 261 262 263
Height
5847 5847 5847 5846 5846 5846 5847 5847 5847 5847 5847 5847 5848 5848 5848 5848 5849 5849 5849 5850 5850 5850 5850 5851 5851 5852 5852 5853 5854 5855 5855 5856 5856 5857 5857 5858 5858 5858 5859 5859 5860 5860 5861
5844 5844 5843 5843 5843 5843 5843 5843 5843 5843 5844 5844 5844 5844 5844 5845 5845 5845 5846 5846 5846 5847 5847 5848 5848 5849 5849 5850 5851 5851 5852 5853 5853 5854 5854 5854 5855 5855 5856 5856 5856 5857 5857
5840 5840 5840 5840 5839 5839 5839 5839 5839 5839 5840 5840 5840 5840 5841 5841 5841 5842 5842 5842 5843 5843 5844 5844 5845 5845 5845 5846 5847 5848 5849 5849 5850 5850 5851 5851 5852 5852 5852 5852 5853 5854 5854
5837 5837 5837 5836 5836 5836 5835 5835 5835 5835 5835 5836 5836 5836 5837 5837 5837 5838 5838 5838 5839 5839 5840 5840 5841 5841 5842 5843 5844 5844 5845 5845 5846 5847 5847 5848 5848 5848 5849 5849 5850 5850 5851
5834 5834 5833 5833 5832 5832 5831 5831 5831 5831 5831 5831 5831 5832 5832 5833 5833 5833 5834 5834 5835 5835 5836 5836 5837 5838 5838 5839 5840 5840 5841 5841 5842 5843 5844 5844 5845 5845 5845 5845 5846 5847 5848
5831 5830 5830 5829 5829 5828 5828 5827 5827 5826 5826 5827 5827 5827 5828 5828 5829 5829 5829 5830 5830 5831 5832 5832 5833 5834 5834 5835 5835 5836 5836 5837 5838 5839 5840 5840 5841 5841 5841 5841 5842 5843 5844
5827 5827 5826 5825 5825 5824 5823 5823 5822 5822 5822 5822 5823 5823 5823 5823 5824 5824 5825 5826 5826 5827 5827 5828 5829 5829 5830 5830 5831 5832 5832 5833 5834 5834 5835 5836 5836 5837 5837 5837 5838 5839 5840
5824 5823 5822 5822 5821 5820 5819 5819 5818 5818 5817 5817 5818 5818 5819 5820 5819 5820 5820 5821 5822 5822 5823 5823 5824 5825 5825 5826 5826 5827 5828 5829 5829 5830 5831 5831 5832 5832 5833 5834 5834 5835 5836
5820 5820 5819 5818 5817 5816 5815 5814 5814 5813 5813 5813 5813 5814 5814 5815 5815 5816 5816 5816 5817 5817 5818 5818 5819 5820 5821 5821 5822 5823 5823 5824 5825 5825 5826 5827 5827 5828 5829 5829 5830 5830 5831
5817 5817 5816 5815 5814 5813 5811 5810 5809 5809 5808 5808 5808 5809 5809 5810 5811 5811 5811 5811 5812 5812 5813 5813 5814 5815 5815 5816 5817 5818 5819 5819 5820 5821 5821 5822 5822 5823 5824 5825 5825 5826 5826
5814 5813 5813 5811 5810 5809 5808 5806 5805 5804 5804 5804 5804 5804 5804 5805 5806 5806 5806 5807 5807 5807 5807 5808 5809 5809 5810 5811 5812 5812 5813 5814 5815 5816 5816 5817 5817 5818 5819 5820 5820 5821 5822
5811 5810 5809 5808 5806 5805 5804 5803 5802 5801 5800 5800 5799 5799 5799 5800 5800 5800 5801 5801 5802 5802 5802 5803 5803 5804 5804 5805 5806 5807 5807 5808 5809 5810 5811 5812 5812 5813 5813 5814 5815 5815 5816
5808 5806 5805 5804 5803 5801 5800 5799 5798 5797 5796 5795 5795 5795 5795 5795 5795 5795 5795 5796 5796 5797 5797 5797 5798 5798 5799 5799 5800 5801 5801 5802 5803 5804 5805 5806 5806 5807 5807 5808 5809 5810 5810
5804 5803 5801 5800 5799 5797 5796 5795 5794 5793 5792 5791 5791 5790 5790 5790 5790 5789 5790 5790 5790 5791 5792 5792 5792 5793 5793 5794 5794 5794 5795 5796 5797 5798 5798 5799 5800 5800 5801 5802 5802 5803 5804
5800 5799 5797 5796 5794 5793 5792 5790 5790 5789 5788 5787 5787 5786 5785 5785 5784 5784 5784 5784 5785 5785 5786 5787 5787 5787 5787 5787 5788 5788 5789 5789 5790 5791 5792 5792 5793 5793 5794 5795 5796 5797 5797
5795 5794 5793 5791 5790 5789 5788 5786 5785 5784 5784 5783 5782 5781 5780 5780 5779 5778 5779 5779 5779 5779 5780 5781 5780 5780 5781 5781 5781 5782 5782 5782 5783 5784 5784 5785 5786 5786 5787 5788 5789 5790 5791
5790 5789 5788 5787 5785 5784 5783 5782 5781 5780 5779 5778 5777 5776 5775 5775 5774 5773 5773 5773 5773 5773 5773 5774 5774 5774 5774 5774 5774 5775 5775 5775 5776 5776 5777 5777 5778 5779 5779 5780 5782 5782 5783
5785 5784 5783 5782 5780 5779 5778 5777 5776 5775 5774 5773 5772 5771 5770 5769 5769 5768 5767 5767 5766 5766 5767 5767 5768 5768 5768 5768 5768 5768 5768 5768 5768 5769 5769 5770 5770 5771 5772 5773 5774 5775 5776
5780 5779 5778 5776 5775 5774 5773 5772 5771 5769 5769 5767 5766 5765 5764 5763 5763 5762 5762 5761 5761 5761 5761 5761 5761 5761 5761 5761 5761 5761 5761 5761 5761 5761 5761 5761 5762 5763 5764 5765 5766 5767 5768
5774 5773 5772 5771 5770 5769 5767 5766 5765 5764 5763 5762 5760 5759 5758 5757 5757 5756 5756 5755 5755 5755 5754 5755 5755 5754 5754 5754 5754 5754 5754 5753 5753 5753 5752 5753 5753 5754 5755 5756 5757 5758 5760
5769 5768 5767 5766 5764 5763 5762 5760 5759 5758 5757 5756 5754 5753 5752 5751 5750 5750 5749 5749 5748 5748 5748 5747 5747 5747 5747 5746 5746 5746 5745 5745 5744 5744 5743 5744 5744 5745 5746 5747 5748 5750 5751
5763 5762 5761 5760 5758 5757 5756 5754 5753 5752 5750 5749 5748 5747 5746 5745 5744 5743 5742 5741 5741 5740 5740 5740 5739 5739 5738 5738 5737 5737 5736 5735 5735 5735 5734 5734 5735 5736 5737 5738 5739 5741 5743
5756 5755 5754 5753 5752 5751 5749 5748 5746 5745 5744 5742 5741 5740 5739 5737 5736 5735 5734 5734 5733 5732 5732 5731 5730 5730 5729 5729 5728 5727 5726 5725 5725 5725 5725 5725 5726 5727 5727 5729 5730 5732 5733
5749 5748 5747 5746 5745 5744 5742 5740 5739 5737 5736 5735 5733 5732 5731 5730 5728 5727 5726 5725 5724 5723 5722 5722 5721 5720 5719 5719 5718 5717 5717 5716 5716 5716 5716 5716 5717 5718 5719 5720 5721 5723 5724
5741 5740 5739 5738 5737 5736 5734 5733 5731 5730 5728 5727 5726 5724 5723 5722 5720 5719 5718 5717 5716 5714 5713 5712 5711 5710 5709 5708 5707 5707 5707 5706 5706 5707 5707 5707 5707 5708 5710 5711 5712 5713 5715
5733 5732 5731 5730 5729 5728 5726 5724 5723 5721 5720 5719 5718 5716 5715 5713 5711 5709 5708 5707 5706 5705 5704 5703 5702 5700 5699 5698 5696 5696 5696 5696 5696 5697 5697 5697 5698 5698 5700 5702 5703 5704 5706